Teddy Meyer — WDF9635 — position and weather

sailwx.info

Track history (hours):
 
Tides and Currents Weather Stations Pressure Air Temp Water Temp Dewpoint Dewpoint Depression Visibility Wind Speed Wind Dir Waves Ship Positions

Teddy Meyer

More information available from US FCC via Universal Licensing System and Coast Guard Vessel Documentation Center.

Last reported at 2014-Aug-05 17:32 UTC. Time now 2014-Aug-21 00:29 UTC.
Position N 29°49' W 091°10'.
Warning: this ship's position is 15 days out of date.

; draft 3 m.

MMSI: 367507220.

Date/timePositionNaut miles runAvg speedWind from/ knotsBaromVisibWave heightAir tempDewpointWater temp
2014-Aug-05 17:32N 29°49' W 091°10'5 5.5
2014-Aug-05 16:33N 29°44' W 091°11'4 4.2
2014-Aug-05 15:33N 29°40' W 091°14'3 3.5
2014-Aug-05 14:33N 29°39' W 091°18'8 5.2
2014-Aug-05 13:07N 29°40' W 091°26'4 5.1
2014-Aug-05 12:22N 29°42' W 091°30'4 5.0
2014-Aug-05 11:33N 29°44' W 091°34'  
2014-Jul-30 09:29N 29°48' W 091°49'11 4.8
2014-Jul-30 07:17N 29°46' W 091°37'5 6.8
2014-Jul-30 06:33N 29°43' W 091°32'8 8.3
2014-Jul-30 05:33N 29°39' W 091°24'8 8.2
2014-Jul-30 04:33N 29°40' W 091°14'6 5.9
2014-Jul-30 03:33N 29°44' W 091°11'8 7.6
2014-Jul-30 02:33N 29°52' W 091°12'7 7.1
2014-Jul-30 01:32N 29°59' W 091°16'19 0.5
2014-Jul-28 08:19N 30°17' W 091°09'0 0.0
2014-Jul-28 07:33N 30°17' W 091°09'  
Track history (hours):
 
Tides and Currents Weather Stations Pressure Air Temp Water Temp Dewpoint Dewpoint Depression Visibility Wind Speed Wind Dir Waves Ship Positions

Teddy Meyer

More information available from US FCC via Universal Licensing System and Coast Guard Vessel Documentation Center.

Last reported at 2014-Aug-05 17:32 UTC. Time now 2014-Aug-21 00:29 UTC.
Position N 29°49' W 091°10'.
Warning: this ship's position is 15 days out of date.

; draft 3 m.

MMSI: 367507220.

Date/timePositionNaut miles runAvg speedWind from/ knotsBaromVisibWave heightAir tempDewpointWater temp
2014-Aug-05 17:32N 29°49' W 091°10'5 5.5
2014-Aug-05 16:33N 29°44' W 091°11'4 4.2
2014-Aug-05 15:33N 29°40' W 091°14'3 3.5
2014-Aug-05 14:33N 29°39' W 091°18'8 5.2
2014-Aug-05 13:07N 29°40' W 091°26'4 5.1
2014-Aug-05 12:22N 29°42' W 091°30'4 5.0
2014-Aug-05 11:33N 29°44' W 091°34'  
2014-Jul-30 09:29N 29°48' W 091°49'11 4.8
2014-Jul-30 07:17N 29°46' W 091°37'5 6.8
2014-Jul-30 06:33N 29°43' W 091°32'8 8.3
2014-Jul-30 05:33N 29°39' W 091°24'8 8.2
2014-Jul-30 04:33N 29°40' W 091°14'6 5.9
2014-Jul-30 03:33N 29°44' W 091°11'8 7.6
2014-Jul-30 02:33N 29°52' W 091°12'7 7.1
2014-Jul-30 01:32N 29°59' W 091°16'19 0.5
2014-Jul-28 08:19N 30°17' W 091°09'0 0.0
2014-Jul-28 07:33N 30°17' W 091°09'  

Dump ship's entire track history